Year,Month,Day,Hour,Minute,Value (Times are PST for temperature in C)
2016,06,30,00,00,13.30
2016,06,30,00,01,13.30
2016,06,30,00,02,13.30
2016,06,30,00,03,13.30
2016,06,30,00,04,13.30
2016,06,30,00,05,13.30
2016,06,30,00,06,13.30
2016,06,30,00,07,13.20
2016,06,30,00,08,13.20
2016,06,30,00,09,13.20
2016,06,30,00,10,13.20
2016,06,30,00,11,13.20
2016,06,30,00,12,13.20
2016,06,30,00,13,13.20
2016,06,30,00,14,13.10
2016,06,30,00,15,13.10
2016,06,30,00,16,13.10
2016,06,30,00,17,13.10
2016,06,30,00,18,13.10
2016,06,30,00,19,13.10
2016,06,30,00,20,13.10
2016,06,30,00,21,13.00
2016,06,30,00,22,13.00
2016,06,30,00,23,13.00
2016,06,30,00,24,13.00
2016,06,30,00,25,12.90
2016,06,30,00,26,12.90
2016,06,30,00,27,12.90
2016,06,30,00,28,12.90
2016,06,30,00,29,12.90
2016,06,30,00,30,12.90
2016,06,30,00,31,12.90
2016,06,30,00,32,12.90
2016,06,30,00,33,12.90
2016,06,30,00,34,12.90
2016,06,30,00,35,12.80
2016,06,30,00,36,12.80
2016,06,30,00,37,12.80
2016,06,30,00,38,12.80
2016,06,30,00,39,12.80
2016,06,30,00,40,12.80
2016,06,30,00,41,12.80
2016,06,30,00,42,12.80
2016,06,30,00,43,12.80
2016,06,30,00,44,12.70
2016,06,30,00,45,12.70
2016,06,30,00,46,12.70
2016,06,30,00,47,12.70
2016,06,30,00,48,12.70
2016,06,30,00,49,12.70
2016,06,30,00,50,12.60
2016,06,30,00,51,12.60
2016,06,30,00,52,12.60
2016,06,30,00,53,12.60
2016,06,30,00,54,12.50
2016,06,30,00,55,12.50
2016,06,30,00,56,12.50
2016,06,30,00,57,12.50
2016,06,30,00,58,12.50
2016,06,30,00,59,12.40
2016,06,30,01,00,12.40
2016,06,30,01,01,12.40
2016,06,30,01,02,12.40
2016,06,30,01,03,12.40
2016,06,30,01,04,12.40
2016,06,30,01,05,12.40
2016,06,30,01,06,12.30
2016,06,30,01,07,12.30
2016,06,30,01,08,12.30
2016,06,30,01,09,12.30
2016,06,30,01,10,12.30
2016,06,30,01,11,12.30
2016,06,30,01,12,12.20
2016,06,30,01,13,12.20
2016,06,30,01,14,12.20
2016,06,30,01,15,12.20
2016,06,30,01,16,12.20
2016,06,30,01,17,12.20
2016,06,30,01,18,12.20
2016,06,30,01,19,12.20
2016,06,30,01,20,12.10
2016,06,30,01,21,12.10
2016,06,30,01,22,12.10
2016,06,30,01,23,12.10
2016,06,30,01,24,12.10
2016,06,30,01,25,12.10
2016,06,30,01,26,12.10
2016,06,30,01,27,12.10
2016,06,30,01,28,12.00
2016,06,30,01,29,12.00
2016,06,30,01,30,12.00
2016,06,30,01,31,12.00
2016,06,30,01,32,11.90
2016,06,30,01,33,11.90
2016,06,30,01,34,11.90
2016,06,30,01,35,11.90
2016,06,30,01,36,11.90
2016,06,30,01,37,11.90
2016,06,30,01,38,11.90
2016,06,30,01,39,11.90
2016,06,30,01,40,11.90
2016,06,30,01,41,11.90
2016,06,30,01,42,11.80
2016,06,30,01,43,11.80
2016,06,30,01,44,11.80
2016,06,30,01,45,11.80
2016,06,30,01,46,11.80
2016,06,30,01,47,11.80
2016,06,30,01,48,11.80
2016,06,30,01,49,11.80
2016,06,30,01,50,11.80
2016,06,30,01,51,11.80
2016,06,30,01,52,11.80
2016,06,30,01,53,11.80
2016,06,30,01,54,11.80
2016,06,30,01,55,11.80
2016,06,30,01,56,11.80
2016,06,30,01,57,11.80
2016,06,30,01,58,11.70
2016,06,30,01,59,11.80
2016,06,30,02,00,11.70
2016,06,30,02,01,11.80
2016,06,30,02,02,11.80
2016,06,30,02,03,11.70
2016,06,30,02,04,11.70
2016,06,30,02,05,11.70
2016,06,30,02,06,11.70
2016,06,30,02,07,11.70
2016,06,30,02,08,11.70
2016,06,30,02,09,11.70
2016,06,30,02,10,11.70
2016,06,30,02,11,11.70
2016,06,30,02,12,11.70
2016,06,30,02,13,11.60
2016,06,30,02,14,11.60
2016,06,30,02,15,11.60
2016,06,30,02,16,11.60
2016,06,30,02,17,11.60
2016,06,30,02,18,11.60
2016,06,30,02,19,11.60
2016,06,30,02,20,11.60
2016,06,30,02,21,11.60
2016,06,30,02,22,11.60
2016,06,30,02,23,11.60
2016,06,30,02,24,11.60
2016,06,30,02,25,11.50
2016,06,30,02,26,11.50
2016,06,30,02,27,11.50
2016,06,30,02,28,11.50
2016,06,30,02,29,11.50
2016,06,30,02,30,11.50
2016,06,30,02,31,11.50
2016,06,30,02,32,11.50
2016,06,30,02,33,11.40
2016,06,30,02,34,11.40
2016,06,30,02,35,11.40
2016,06,30,02,36,11.40
2016,06,30,02,37,11.40
2016,06,30,02,38,11.40
2016,06,30,02,39,11.40
2016,06,30,02,40,11.40
2016,06,30,02,41,11.40
2016,06,30,02,42,11.40
2016,06,30,02,43,11.40
2016,06,30,02,44,11.30
2016,06,30,02,45,11.30
2016,06,30,02,46,11.30
2016,06,30,02,47,11.30
2016,06,30,02,48,11.30
2016,06,30,02,49,11.30
2016,06,30,02,50,11.30
2016,06,30,02,51,11.30
2016,06,30,02,52,11.30
2016,06,30,02,53,11.30
2016,06,30,02,54,11.30
2016,06,30,02,55,11.30
2016,06,30,02,56,11.30
2016,06,30,02,57,11.30
2016,06,30,02,58,11.30
2016,06,30,02,59,11.30
2016,06,30,03,00,11.30
2016,06,30,03,01,11.30
2016,06,30,03,02,11.30
2016,06,30,03,03,11.30
2016,06,30,03,04,11.30
2016,06,30,03,05,11.30
2016,06,30,03,06,11.30
2016,06,30,03,07,11.30
2016,06,30,03,08,11.30
2016,06,30,03,09,11.30
2016,06,30,03,10,11.30
2016,06,30,03,11,11.30
2016,06,30,03,12,11.30
2016,06,30,03,13,11.30
2016,06,30,03,14,11.30
2016,06,30,03,15,11.30
2016,06,30,03,16,11.30
2016,06,30,03,17,11.30
2016,06,30,03,18,11.40
2016,06,30,03,19,11.40
2016,06,30,03,20,11.40
2016,06,30,03,21,11.40
2016,06,30,03,22,11.40
2016,06,30,03,23,11.40
2016,06,30,03,24,11.40
2016,06,30,03,25,11.30
2016,06,30,03,26,11.30
2016,06,30,03,27,11.30
2016,06,30,03,28,11.30
2016,06,30,03,29,11.30
2016,06,30,03,30,11.20
2016,06,30,03,31,11.20
2016,06,30,03,32,11.20
2016,06,30,03,33,11.20
2016,06,30,03,34,11.20
2016,06,30,03,35,11.20
2016,06,30,03,36,11.10
2016,06,30,03,37,11.10
2016,06,30,03,38,11.10
2016,06,30,03,39,11.10
2016,06,30,03,40,11.10
2016,06,30,03,41,11.10
2016,06,30,03,42,11.10
2016,06,30,03,43,11.10
2016,06,30,03,44,11.10
2016,06,30,03,45,11.10
2016,06,30,03,46,11.10
2016,06,30,03,47,11.10
2016,06,30,03,48,11.00
2016,06,30,03,49,11.00
2016,06,30,03,50,11.00
2016,06,30,03,51,11.00
2016,06,30,03,52,11.00
2016,06,30,03,53,11.00
2016,06,30,03,54,11.00
2016,06,30,03,55,11.10
2016,06,30,03,56,11.10
2016,06,30,03,57,11.10
2016,06,30,03,58,11.10
2016,06,30,03,59,11.10
2016,06,30,04,00,11.10
2016,06,30,04,01,11.00
2016,06,30,04,02,11.00
2016,06,30,04,03,11.00
2016,06,30,04,04,11.00
2016,06,30,04,05,11.10
2016,06,30,04,06,11.10
2016,06,30,04,08,11.10
2016,06,30,04,09,11.10
2016,06,30,04,10,11.10
2016,06,30,04,11,11.10
2016,06,30,04,12,11.20
2016,06,30,04,13,11.20
2016,06,30,04,14,11.20
2016,06,30,04,15,11.20
2016,06,30,04,16,11.20
2016,06,30,04,17,11.20
2016,06,30,04,18,11.20
2016,06,30,04,19,11.20
2016,06,30,04,20,11.20
2016,06,30,04,21,11.20
2016,06,30,04,22,11.20
2016,06,30,04,23,11.20
2016,06,30,04,24,11.30
2016,06,30,04,25,11.30
2016,06,30,04,26,11.20
2016,06,30,04,27,11.30
2016,06,30,04,28,11.30
2016,06,30,04,29,11.30
2016,06,30,04,30,11.30
2016,06,30,04,31,11.30
2016,06,30,04,32,11.30
2016,06,30,04,33,11.30
2016,06,30,04,34,11.30
2016,06,30,04,35,11.30
2016,06,30,04,36,11.40
2016,06,30,04,37,11.40
2016,06,30,04,38,11.40
2016,06,30,04,39,11.40
2016,06,30,04,40,11.40
2016,06,30,04,41,11.50
2016,06,30,04,42,11.50
2016,06,30,04,43,11.50
2016,06,30,04,44,11.60
2016,06,30,04,45,11.60
2016,06,30,04,46,11.60
2016,06,30,04,47,11.60
2016,06,30,04,48,11.60
2016,06,30,04,49,11.60
2016,06,30,04,50,11.60
2016,06,30,04,51,11.60
2016,06,30,04,52,11.60
2016,06,30,04,53,11.60
2016,06,30,04,54,11.60
2016,06,30,04,55,11.60
2016,06,30,04,56,11.60
2016,06,30,04,57,11.60
2016,06,30,04,58,11.60
2016,06,30,04,59,11.60
2016,06,30,05,00,11.60
2016,06,30,05,01,11.60
2016,06,30,05,02,11.60
2016,06,30,05,03,11.60
2016,06,30,05,04,11.60
2016,06,30,05,05,11.60
2016,06,30,05,06,11.60
2016,06,30,05,07,11.70
2016,06,30,05,08,11.70
2016,06,30,05,09,11.70
2016,06,30,05,10,11.70
2016,06,30,05,11,11.70
2016,06,30,05,12,11.70
2016,06,30,05,13,11.70
2016,06,30,05,14,11.70
2016,06,30,05,15,11.70
2016,06,30,05,16,11.70
2016,06,30,05,17,11.70
2016,06,30,05,18,11.70
2016,06,30,05,19,11.70
2016,06,30,05,20,11.70
2016,06,30,05,21,11.70
2016,06,30,05,22,11.80
2016,06,30,05,23,11.80
2016,06,30,05,24,11.80
2016,06,30,05,25,11.80
2016,06,30,05,26,11.80
2016,06,30,05,27,11.80
2016,06,30,05,28,11.80
2016,06,30,05,29,11.80
2016,06,30,05,30,11.80
2016,06,30,05,31,11.80
2016,06,30,05,32,11.80
2016,06,30,05,33,11.70
2016,06,30,05,34,11.70
2016,06,30,05,35,11.70
2016,06,30,05,36,11.70
2016,06,30,05,37,11.70
2016,06,30,05,38,11.80
2016,06,30,05,39,11.80
2016,06,30,05,40,11.80
2016,06,30,05,41,11.80
2016,06,30,05,42,11.80
2016,06,30,05,43,11.80
2016,06,30,05,44,11.80
2016,06,30,05,45,11.80
2016,06,30,05,46,11.80
2016,06,30,05,47,11.80
2016,06,30,05,48,11.80
2016,06,30,05,49,11.80
2016,06,30,05,50,11.80
2016,06,30,05,51,11.90
2016,06,30,05,52,11.90
2016,06,30,05,53,11.90
2016,06,30,05,54,11.90
2016,06,30,05,55,11.90
2016,06,30,05,56,11.90
2016,06,30,05,57,12.00
2016,06,30,05,58,12.00
2016,06,30,05,59,12.00
2016,06,30,06,00,12.10
2016,06,30,06,01,12.10
2016,06,30,06,02,12.10
2016,06,30,06,03,12.20
2016,06,30,06,04,12.20
2016,06,30,06,05,12.20
2016,06,30,06,06,12.20
2016,06,30,06,07,12.30
2016,06,30,06,08,12.30
2016,06,30,06,09,12.30
2016,06,30,06,10,12.30
2016,06,30,06,11,12.30
2016,06,30,06,12,12.30
2016,06,30,06,13,12.30
2016,06,30,06,14,12.30
2016,06,30,06,15,12.30
2016,06,30,06,16,12.30
2016,06,30,06,17,12.40
2016,06,30,06,18,12.40
2016,06,30,06,19,12.30
2016,06,30,06,20,12.30
2016,06,30,06,21,12.30
2016,06,30,06,22,12.30
2016,06,30,06,23,12.30
2016,06,30,06,24,12.30
2016,06,30,06,25,12.30
2016,06,30,06,26,12.30
2016,06,30,06,27,12.30
2016,06,30,06,28,12.30
2016,06,30,06,29,12.30
2016,06,30,06,30,12.30
2016,06,30,06,31,12.30
2016,06,30,06,32,12.30
2016,06,30,06,33,12.40
2016,06,30,06,34,12.40
2016,06,30,06,35,12.40
2016,06,30,06,36,12.40
2016,06,30,06,37,12.40
2016,06,30,06,38,12.50
2016,06,30,06,39,12.50
2016,06,30,06,40,12.50
2016,06,30,06,41,12.50
2016,06,30,06,42,12.60
2016,06,30,06,43,12.60
2016,06,30,06,44,12.60
2016,06,30,06,45,12.60
2016,06,30,06,46,12.60
2016,06,30,06,47,12.60
2016,06,30,06,48,12.60
2016,06,30,06,49,12.70
2016,06,30,06,50,12.70
2016,06,30,06,51,12.70
2016,06,30,06,52,12.70
2016,06,30,06,53,12.70
2016,06,30,06,54,12.80
2016,06,30,06,55,12.80
2016,06,30,06,56,12.80
2016,06,30,06,57,12.80
2016,06,30,06,58,12.80
2016,06,30,06,59,12.80
2016,06,30,07,00,12.80
2016,06,30,07,01,12.90
2016,06,30,07,02,12.90
2016,06,30,07,03,12.90
2016,06,30,07,04,12.90
2016,06,30,07,05,12.90
2016,06,30,07,06,12.90
2016,06,30,07,07,13.00
2016,06,30,07,08,13.00
2016,06,30,07,09,13.00
2016,06,30,07,10,13.10
2016,06,30,07,11,13.10
2016,06,30,07,12,13.10
2016,06,30,07,13,13.10
2016,06,30,07,14,13.10
2016,06,30,07,15,13.20
2016,06,30,07,16,13.20
2016,06,30,07,17,13.20
2016,06,30,07,18,13.20
2016,06,30,07,19,13.20
2016,06,30,07,20,13.30
2016,06,30,07,21,13.30
2016,06,30,07,22,13.30
2016,06,30,07,23,13.30
2016,06,30,07,24,13.40
2016,06,30,07,25,13.40
2016,06,30,07,26,13.40
2016,06,30,07,27,13.50
2016,06,30,07,28,13.50
2016,06,30,07,29,13.60
2016,06,30,07,30,13.60
2016,06,30,07,31,13.60
2016,06,30,07,32,13.60
2016,06,30,07,33,13.60
2016,06,30,07,34,13.70
2016,06,30,07,35,13.70
2016,06,30,07,36,13.70
2016,06,30,07,37,13.70
2016,06,30,07,38,13.70
2016,06,30,07,39,13.80
2016,06,30,07,40,13.80
2016,06,30,07,41,13.80
2016,06,30,07,42,13.80
2016,06,30,07,43,13.80
2016,06,30,07,44,13.80
2016,06,30,07,45,13.80
2016,06,30,07,46,13.90
2016,06,30,07,47,13.90
2016,06,30,07,48,13.90
2016,06,30,07,49,13.90
2016,06,30,07,50,14.00
2016,06,30,07,51,14.00
2016,06,30,07,52,14.00
2016,06,30,07,53,14.10
2016,06,30,07,54,14.10
2016,06,30,07,55,14.10
2016,06,30,07,56,14.10
2016,06,30,07,57,14.10
2016,06,30,07,58,14.10
2016,06,30,07,59,14.10
2016,06,30,08,00,14.10
2016,06,30,08,01,14.10
2016,06,30,08,02,14.20
2016,06,30,08,03,14.20
2016,06,30,08,04,14.20
2016,06,30,08,05,14.20
2016,06,30,08,06,14.20
2016,06,30,08,07,14.30
2016,06,30,08,08,14.30
2016,06,30,08,09,14.30
2016,06,30,08,10,14.30
2016,06,30,08,11,14.30
2016,06,30,08,12,14.40
2016,06,30,08,13,14.40
2016,06,30,08,14,14.50
2016,06,30,08,15,14.50
2016,06,30,08,16,14.50
2016,06,30,08,17,14.60
2016,06,30,08,18,14.60
2016,06,30,08,19,14.60
2016,06,30,08,20,14.60
2016,06,30,08,21,14.70
2016,06,30,08,22,14.70
2016,06,30,08,23,14.70
2016,06,30,08,24,14.80
2016,06,30,08,25,14.80
2016,06,30,08,26,14.80
2016,06,30,08,27,14.80
2016,06,30,08,28,14.80
2016,06,30,08,29,14.90
2016,06,30,08,30,14.90
2016,06,30,08,31,14.90
2016,06,30,08,32,15.00
2016,06,30,08,33,15.00
2016,06,30,08,34,15.10
2016,06,30,08,35,15.20
2016,06,30,08,36,15.20
2016,06,30,08,37,15.30
2016,06,30,08,38,15.40
2016,06,30,08,39,15.40
2016,06,30,08,40,15.50
2016,06,30,08,41,15.60
2016,06,30,08,42,15.60
2016,06,30,08,43,15.70
2016,06,30,08,44,15.70
2016,06,30,08,45,15.70
2016,06,30,08,46,15.70
2016,06,30,08,47,15.70
2016,06,30,08,48,15.70
2016,06,30,08,49,15.70
2016,06,30,08,50,15.70
2016,06,30,08,51,15.70
2016,06,30,08,52,15.60
2016,06,30,08,53,15.60
2016,06,30,08,54,15.60
2016,06,30,08,55,15.60
2016,06,30,08,56,15.60
2016,06,30,08,57,15.60
2016,06,30,08,58,15.60
2016,06,30,08,59,15.60
2016,06,30,09,00,15.60
2016,06,30,09,01,15.60
2016,06,30,09,02,15.70
2016,06,30,09,03,15.70
2016,06,30,09,04,15.70
2016,06,30,09,05,15.80
2016,06,30,09,06,15.90
2016,06,30,09,07,15.90
2016,06,30,09,08,15.90
2016,06,30,09,09,16.00
2016,06,30,09,10,16.10
2016,06,30,09,11,16.10
2016,06,30,09,12,16.10
2016,06,30,09,13,16.10
2016,06,30,09,14,16.00
2016,06,30,09,15,16.00
2016,06,30,09,16,15.90
2016,06,30,09,17,15.90
2016,06,30,09,18,15.90
2016,06,30,09,19,15.90
2016,06,30,09,20,15.90
2016,06,30,09,21,15.90
2016,06,30,09,22,15.90
2016,06,30,09,23,16.00
2016,06,30,09,24,16.00
2016,06,30,09,25,16.10
2016,06,30,09,26,16.20
2016,06,30,09,27,16.20
2016,06,30,09,28,16.30
2016,06,30,09,29,16.30
2016,06,30,09,30,16.30
2016,06,30,09,31,16.40
2016,06,30,09,32,16.40
2016,06,30,09,33,16.40
2016,06,30,09,34,16.40
2016,06,30,09,35,16.30
2016,06,30,09,36,16.30
2016,06,30,09,37,16.30
2016,06,30,09,38,16.30
2016,06,30,09,39,16.40
2016,06,30,09,40,16.40
2016,06,30,09,41,16.40
2016,06,30,09,42,16.40
2016,06,30,09,43,16.30
2016,06,30,09,44,16.30
2016,06,30,09,45,16.30
2016,06,30,09,46,16.20
2016,06,30,09,47,16.20
2016,06,30,09,48,16.20
2016,06,30,09,49,16.30
2016,06,30,09,50,16.40
2016,06,30,09,51,16.50
2016,06,30,09,52,16.60
2016,06,30,09,53,16.70
2016,06,30,09,54,16.80
2016,06,30,09,55,16.90
2016,06,30,09,56,16.90
2016,06,30,09,57,17.00
2016,06,30,09,58,17.10
2016,06,30,09,59,17.00
2016,06,30,10,00,17.00
2016,06,30,10,01,17.00
2016,06,30,10,02,17.00
2016,06,30,10,03,17.00
2016,06,30,10,04,17.10
2016,06,30,10,05,17.10
2016,06,30,10,06,17.20
2016,06,30,10,07,17.30
2016,06,30,10,08,17.30
2016,06,30,10,09,17.40
2016,06,30,10,10,17.40
2016,06,30,10,11,17.40
2016,06,30,10,12,17.40
2016,06,30,10,13,17.40
2016,06,30,10,14,17.40
2016,06,30,10,15,17.50
2016,06,30,10,16,17.60
2016,06,30,10,17,17.60
2016,06,30,10,18,17.60
2016,06,30,10,19,17.70
2016,06,30,10,20,17.80
2016,06,30,10,21,17.80
2016,06,30,10,22,17.80
2016,06,30,10,23,17.80
2016,06,30,10,24,17.80
2016,06,30,10,25,17.80
2016,06,30,10,26,17.80
2016,06,30,10,27,17.90
2016,06,30,10,28,17.90
2016,06,30,10,29,17.90
2016,06,30,10,30,17.80
2016,06,30,10,31,17.80
2016,06,30,10,32,17.80
2016,06,30,10,33,17.80
2016,06,30,10,34,17.80
2016,06,30,10,35,17.80
2016,06,30,10,36,17.80
2016,06,30,10,37,17.90
2016,06,30,10,38,17.90
2016,06,30,10,39,18.00
2016,06,30,10,40,17.90
2016,06,30,10,41,18.00
2016,06,30,10,42,18.10
2016,06,30,10,43,18.20
2016,06,30,10,44,18.20
2016,06,30,10,45,18.10
2016,06,30,10,46,18.10
2016,06,30,10,47,18.10
2016,06,30,10,48,18.00
2016,06,30,10,49,17.90
2016,06,30,10,50,17.90
2016,06,30,10,51,17.90
2016,06,30,10,52,17.90
2016,06,30,10,53,17.90
2016,06,30,10,54,17.90
2016,06,30,10,55,17.90
2016,06,30,10,56,17.90
2016,06,30,10,57,17.90
2016,06,30,10,58,17.90
2016,06,30,10,59,17.80
2016,06,30,11,00,17.80
2016,06,30,11,01,17.80
2016,06,30,11,02,17.70
2016,06,30,11,03,17.70
2016,06,30,11,04,17.70
2016,06,30,11,05,17.60
2016,06,30,11,06,17.60
2016,06,30,11,07,17.60
2016,06,30,11,08,17.60
2016,06,30,11,09,17.70
2016,06,30,11,10,17.70
2016,06,30,11,11,17.80
2016,06,30,11,12,17.80
2016,06,30,11,13,17.90
2016,06,30,11,14,17.90
2016,06,30,11,15,17.90
2016,06,30,11,16,17.90
2016,06,30,11,17,17.90
2016,06,30,11,18,17.90
2016,06,30,11,19,17.90
2016,06,30,11,20,17.90
2016,06,30,11,21,17.80
2016,06,30,11,22,17.80
2016,06,30,11,23,17.80
2016,06,30,11,24,17.90
2016,06,30,11,25,17.90
2016,06,30,11,26,18.00
2016,06,30,11,27,18.00
2016,06,30,11,28,18.10
2016,06,30,11,29,18.20
2016,06,30,11,30,18.30
2016,06,30,11,31,18.30
2016,06,30,11,32,18.30
2016,06,30,11,33,18.20
2016,06,30,11,34,18.20
2016,06,30,11,35,18.10
2016,06,30,11,36,18.10
2016,06,30,11,37,18.10
2016,06,30,11,38,18.10
2016,06,30,11,39,18.10
2016,06,30,11,40,18.10
2016,06,30,11,41,18.10
2016,06,30,11,42,18.10
2016,06,30,11,43,18.10
2016,06,30,11,44,18.10
2016,06,30,11,45,18.10
2016,06,30,11,46,18.20
2016,06,30,11,47,18.20
2016,06,30,11,48,18.20
2016,06,30,11,49,18.20
2016,06,30,11,50,18.30
2016,06,30,11,51,18.30
2016,06,30,11,52,18.30
2016,06,30,11,53,18.20
2016,06,30,11,54,18.20
2016,06,30,11,55,18.20
2016,06,30,11,56,18.30
2016,06,30,11,57,18.30
2016,06,30,11,58,18.40
2016,06,30,11,59,18.40
2016,06,30,12,00,18.40
2016,06,30,12,01,18.40
2016,06,30,12,02,18.40
2016,06,30,12,03,18.40
2016,06,30,12,04,18.40
2016,06,30,12,05,18.40
2016,06,30,12,06,18.40
2016,06,30,12,07,18.50
2016,06,30,12,08,18.50
2016,06,30,12,09,18.60
2016,06,30,12,10,18.60
2016,06,30,12,11,18.60
2016,06,30,12,12,18.70
2016,06,30,12,13,18.70
2016,06,30,12,14,18.70
2016,06,30,12,15,18.70
2016,06,30,12,16,18.70
2016,06,30,12,17,18.70
2016,06,30,12,18,18.60
2016,06,30,12,19,18.60
2016,06,30,12,20,18.50
2016,06,30,12,21,18.40
2016,06,30,12,22,18.40
2016,06,30,12,23,18.40
2016,06,30,12,24,18.40
2016,06,30,12,25,18.30
2016,06,30,12,26,18.20
2016,06,30,12,27,18.10
2016,06,30,12,28,18.00
2016,06,30,12,29,17.90
2016,06,30,12,30,17.90
2016,06,30,12,31,17.80
2016,06,30,12,32,17.80
2016,06,30,12,33,17.80
2016,06,30,12,34,17.80
2016,06,30,12,35,17.70
2016,06,30,12,36,17.70
2016,06,30,12,37,17.60
2016,06,30,12,38,17.50
2016,06,30,12,39,17.40
2016,06,30,12,40,17.30
2016,06,30,12,41,17.30
2016,06,30,12,42,17.30
2016,06,30,12,43,17.40
2016,06,30,12,44,17.50
2016,06,30,12,45,17.60
2016,06,30,12,46,17.60
2016,06,30,12,47,17.60
2016,06,30,12,48,17.60
2016,06,30,12,49,17.50
2016,06,30,12,50,17.50
2016,06,30,12,51,17.40
2016,06,30,12,52,17.40
2016,06,30,12,53,17.40
2016,06,30,12,54,17.50
2016,06,30,12,55,17.60
2016,06,30,12,56,17.70
2016,06,30,12,57,17.80
2016,06,30,12,58,17.90
2016,06,30,12,59,18.10
2016,06,30,13,00,18.20
2016,06,30,13,01,18.30
2016,06,30,13,02,18.40
2016,06,30,13,03,18.50
2016,06,30,13,04,18.50
2016,06,30,13,05,18.60
2016,06,30,13,06,18.70
2016,06,30,13,07,18.70
2016,06,30,13,08,18.70
2016,06,30,13,09,18.80
2016,06,30,13,10,18.80
2016,06,30,13,11,18.80
2016,06,30,13,12,18.80
2016,06,30,13,13,18.80
2016,06,30,13,14,18.90
2016,06,30,13,15,18.90
2016,06,30,13,16,18.90
2016,06,30,13,17,18.90
2016,06,30,13,18,19.00
2016,06,30,13,19,19.10
2016,06,30,13,20,19.20
2016,06,30,13,21,19.20
2016,06,30,13,22,19.30
2016,06,30,13,23,19.40
2016,06,30,13,24,19.40
2016,06,30,13,25,19.50
2016,06,30,13,26,19.50
2016,06,30,13,27,19.40
2016,06,30,13,28,19.40
2016,06,30,13,29,19.40
2016,06,30,13,30,19.40
2016,06,30,13,31,19.30
2016,06,30,13,32,19.20
2016,06,30,13,33,19.10
2016,06,30,13,34,18.90
2016,06,30,13,35,18.90
2016,06,30,13,36,18.80
2016,06,30,13,37,18.70
2016,06,30,13,38,18.70
2016,06,30,13,39,18.70
2016,06,30,13,40,18.80
2016,06,30,13,41,18.80
2016,06,30,13,42,18.90
2016,06,30,13,43,18.90
2016,06,30,13,44,19.00
2016,06,30,13,45,19.00
2016,06,30,13,46,19.10
2016,06,30,13,47,19.10
2016,06,30,13,48,19.20
2016,06,30,13,49,19.30
2016,06,30,13,50,19.40
2016,06,30,13,51,19.50
2016,06,30,13,52,19.60
2016,06,30,13,53,19.70
2016,06,30,13,54,19.70
2016,06,30,13,55,19.70
2016,06,30,13,56,19.60
2016,06,30,13,57,19.60
2016,06,30,13,58,19.60
2016,06,30,13,59,19.60
2016,06,30,14,00,19.60
2016,06,30,14,01,19.60
2016,06,30,14,02,19.70
2016,06,30,14,03,19.70
2016,06,30,14,04,19.70
2016,06,30,14,05,19.70
2016,06,30,14,06,19.80
2016,06,30,14,07,19.90
2016,06,30,14,08,20.00
2016,06,30,14,09,20.00
2016,06,30,14,10,20.10
2016,06,30,14,11,20.10
2016,06,30,14,12,20.10
2016,06,30,14,13,20.00
2016,06,30,14,14,19.90
2016,06,30,14,15,19.70
2016,06,30,14,16,19.60
2016,06,30,14,17,19.40
2016,06,30,14,18,19.30
2016,06,30,14,19,19.10
2016,06,30,14,20,19.00
2016,06,30,14,21,18.90
2016,06,30,14,22,18.70
2016,06,30,14,23,18.60
2016,06,30,14,24,18.50
2016,06,30,14,25,18.50
2016,06,30,14,26,18.50
2016,06,30,14,27,18.50
2016,06,30,14,28,18.50
2016,06,30,14,29,18.50
2016,06,30,14,30,18.50
2016,06,30,14,31,18.50
2016,06,30,14,32,18.60
2016,06,30,14,33,18.60
2016,06,30,14,34,18.60
2016,06,30,14,35,18.50
2016,06,30,14,36,18.50
2016,06,30,14,37,18.50
2016,06,30,14,38,18.40
2016,06,30,14,39,18.40
2016,06,30,14,40,18.40
2016,06,30,14,41,18.40
2016,06,30,14,42,18.50
2016,06,30,14,43,18.50
2016,06,30,14,44,18.50
2016,06,30,14,45,18.60
2016,06,30,14,46,18.70
2016,06,30,14,47,18.70
2016,06,30,14,48,18.80
2016,06,30,14,49,18.80
2016,06,30,14,50,18.80
2016,06,30,14,51,18.80
2016,06,30,14,52,18.80
2016,06,30,14,53,18.90
2016,06,30,14,54,18.90
2016,06,30,14,55,18.90
2016,06,30,14,56,19.00
2016,06,30,14,57,19.00
2016,06,30,14,58,19.10
2016,06,30,14,59,19.10
2016,06,30,15,00,19.10
2016,06,30,15,01,19.10
2016,06,30,15,02,19.00
2016,06,30,15,03,19.00
2016,06,30,15,04,19.10
2016,06,30,15,05,19.10
2016,06,30,15,06,19.10
2016,06,30,15,07,19.20
2016,06,30,15,08,19.20
2016,06,30,15,09,19.20
2016,06,30,15,10,19.20
2016,06,30,15,11,19.30
2016,06,30,15,12,19.30
2016,06,30,15,13,19.30
2016,06,30,15,14,19.30
2016,06,30,15,15,19.30
2016,06,30,15,16,19.30
2016,06,30,15,17,19.30
2016,06,30,15,18,19.30
2016,06,30,15,19,19.40
2016,06,30,15,20,19.40
2016,06,30,15,21,19.40
2016,06,30,15,22,19.40
2016,06,30,15,23,19.40
2016,06,30,15,24,19.40
2016,06,30,15,25,19.40
2016,06,30,15,26,19.50
2016,06,30,15,27,19.60
2016,06,30,15,28,19.60
2016,06,30,15,29,19.60
2016,06,30,15,30,19.50
2016,06,30,15,31,19.50
2016,06,30,15,32,19.40
2016,06,30,15,33,19.30
2016,06,30,15,34,19.30
2016,06,30,15,35,19.20
2016,06,30,15,36,19.20
2016,06,30,15,37,19.10
2016,06,30,15,38,19.00
2016,06,30,15,39,19.00
2016,06,30,15,40,18.90
2016,06,30,15,41,18.90
2016,06,30,15,42,18.80
2016,06,30,15,43,18.80
2016,06,30,15,44,18.80
2016,06,30,15,45,18.80
2016,06,30,15,46,18.80
2016,06,30,15,47,18.70
2016,06,30,15,48,18.70
2016,06,30,15,49,18.70
2016,06,30,15,50,18.70
2016,06,30,15,51,18.50
2016,06,30,15,52,18.40
2016,06,30,15,53,18.30
2016,06,30,15,54,18.20
2016,06,30,15,55,18.10
2016,06,30,15,56,18.10
2016,06,30,15,57,18.00
2016,06,30,15,58,18.00
2016,06,30,15,59,18.00
2016,06,30,16,00,18.00
2016,06,30,16,01,18.10
2016,06,30,16,02,18.20
2016,06,30,16,03,18.20
2016,06,30,16,04,18.30
2016,06,30,16,05,18.40
2016,06,30,16,06,18.50
2016,06,30,16,07,18.60
2016,06,30,16,08,18.60
2016,06,30,16,09,18.60
2016,06,30,16,10,18.60
2016,06,30,16,11,18.50
2016,06,30,16,12,18.50
2016,06,30,16,13,18.50
2016,06,30,16,14,18.50
2016,06,30,16,15,18.50
2016,06,30,16,16,18.60
2016,06,30,16,17,18.60
2016,06,30,16,18,18.70
2016,06,30,16,19,18.80
2016,06,30,16,20,18.90
2016,06,30,16,21,18.90
2016,06,30,16,22,18.90
2016,06,30,16,23,19.00
2016,06,30,16,24,19.00
2016,06,30,16,25,18.90
2016,06,30,16,26,18.80
2016,06,30,16,27,18.80
2016,06,30,16,28,18.70
2016,06,30,16,29,18.70
2016,06,30,16,30,18.60
2016,06,30,16,31,18.60
2016,06,30,16,32,18.60
2016,06,30,16,33,18.60
2016,06,30,16,34,18.60
2016,06,30,16,35,18.60
2016,06,30,16,36,18.60
2016,06,30,16,37,18.50
2016,06,30,16,38,18.40
2016,06,30,16,39,18.20
2016,06,30,16,40,18.10
2016,06,30,16,41,17.90
2016,06,30,16,42,17.80
2016,06,30,16,43,17.70
2016,06,30,16,44,17.70
2016,06,30,16,45,17.60
2016,06,30,16,46,17.60
2016,06,30,16,47,17.60
2016,06,30,16,48,17.60
2016,06,30,16,49,17.60
2016,06,30,16,50,17.60
2016,06,30,16,51,17.70
2016,06,30,16,52,17.70
2016,06,30,16,53,17.70
2016,06,30,16,54,17.70
2016,06,30,16,55,17.80
2016,06,30,16,56,17.80
2016,06,30,16,57,17.90
2016,06,30,16,58,17.90
2016,06,30,16,59,17.90
2016,06,30,17,00,17.90
2016,06,30,17,01,17.90
2016,06,30,17,02,17.90
2016,06,30,17,03,17.80
2016,06,30,17,04,17.80
2016,06,30,17,05,17.80
2016,06,30,17,06,17.90
2016,06,30,17,07,17.90
2016,06,30,17,08,18.00
2016,06,30,17,09,18.10
2016,06,30,17,10,18.20
2016,06,30,17,11,18.30
2016,06,30,17,12,18.40
2016,06,30,17,13,18.50
2016,06,30,17,14,18.60
2016,06,30,17,15,18.60
2016,06,30,17,16,18.60
2016,06,30,17,17,18.60
2016,06,30,17,18,18.60
2016,06,30,17,19,18.60
2016,06,30,17,20,18.60